Regional Weather Roundup
Issued by NWS

Home | Current Version | Previous Version | Graphics & Text | Print | Product List | Glossary On
Versions: 1 2 3 4 5 6 7 8 9 10 11 12 13 14 15 16 17 18 19 20 21 22 23 24 25 26 27 28 29 30 31 32 33 34 35 36 37 38 39 40 41 42 43 44 45 46 47 48 49 50
000
ASUS43 KLSX 130457
RWRMO

WEATHER SUMMARY FOR MISSOURI
NATIONAL WEATHER SERVICE SPRINGFIELD MO
1100 PM CST FRI FEB 12 2016

NOTE: "FAIR" INDICATES FEW OR NO CLOUDS BELOW 12,000 FEET WITH NO
       SIGNIFICANT WEATHER AND/OR OBSTRUCTIONS TO VISIBILITY.
       CURRENT SKY AND/OR WEATHER CONDITIONS ARE NOT AVAILABLE FOR
       CHILLICOTHE AND FARMINGTON.

MOZ001>031-035>038-043-044-053-054-130600-
...NORTHERN AND WESTERN MISSOURI...

CITY           SKY/WX    TMP DP  RH WIND       PRES   REMARKS
KANSAS CTY INT CLOUDY    19   7  59 N14       30.59S WCI   6
LEE`S SUMMIT   CLOUDY    20   5  52 N13       30.59R WCI   7
ST JOSEPH      CLOUDY    17   5  59 N12       30.63F WCI   4
CHILLICOTHE      N/A     15   2  56 N10G17    30.63S WCI   2

$$
MOZ066>068-077>081-088>096-101>105-130600-
...SOUTHWEST MISSOURI...

CITY           SKY/WX    TMP DP  RH WIND       PRES   REMARKS
SPRINGFIELD    CLEAR     27   9  46 N12       30.49R WCI  17
JOPLIN         CLOUDY    31  17  56 N9        30.54R WCI  23

$$
MOZ032>034-039>042-045>050-055>058-069>072-130600-
...CENTRAL MISSOURI...

CITY           SKY/WX    TMP DP  RH WIND       PRES   REMARKS
COLUMBIA       NOT AVBL
JEFFERSON CITY CLEAR     21   6  52 N9        30.58R WCI  11
ROLLA          CLEAR     20   6  55 N13       30.50R WCI   7
SEDALIA        CLEAR     20   3  48 N13       30.59R WCI   7

$$
MOZ051-052-059>065-130600-
...EAST CENTRAL MISSOURI...

CITY           SKY/WX    TMP DP  RH WIND       PRES   REMARKS
ST LOUIS INTL  CLEAR     20   5  52 NW14      30.53R WCI   7

$$
MOZ072>076-082>087-097>100-106>115-130600-
...SOUTH CENTRAL AND SOUTHEAST MISSOURI...

CITY           SKY/WX    TMP DP  RH WIND       PRES   REMARKS
CAPE GIRARDEAU PTCLDY    26  14  60 N13       30.48R WCI  15
POPLAR BLUFF   PTCLDY    30  16  56 N14       30.47R WCI  19
WEST PLAINS    CLEAR     27  10  49 N7        30.46S WCI  19

$$


USA.gov is the U.S. government's official web portal to all federal, state and local government web resources and services.